Location: Betzi
(47.2343°N, 9.5260°E)
Time: 22:28:40
(UTC+00:00)

FENGYUN 3A - Pass Details

Date: 27 May 2022
Orbit: 823 x 836 km, 98.5° (Epoch: 29 June)

Event Time Altitude Azimuth Distance (km) Brightness Sun altitude
Rises 02:51:13 0° 14° (NNE) 3,372 7.9 -6.5°
Reaches altitude 10° 02:53:35 10° 15° (NNE) 2,435 7.1 -6.2°
Maximum altitude 02:59:00 84° 103° (ESE) 835 3.8 -5.5°
Drops below altitude 10° 03:04:23 10° 194° (SSW) 2,423 5.6 -4.8°
Sets 03:06:43 0° 194° (SSW) 3,353 6.3 -4.5°
